軌道要素
Epoch 2015 Sept. 15.0 TT = JDT 2457280.5
T 2015 Sept. 28.95191 TT MPCW
q 2.0734108 (2000.0) P Q
n 0.01389500 Peri. 102.78567 -0.13151604 -0.98155247
a 17.1355101 Node 350.51185 +0.18319007 +0.11351487
e 0.8789992 Incl. 57.33637 +0.97424069 -0.15384770
P 70.93
From 196 observations 2015 Dec. 17-2016 May 5, mean residual 0".6.
|